Preview of NWS' New Version of Forecast
This preview is not operational and should not be used for support decisions.

Regional Weather Roundup (RWR)

Issued by National Weather Service (NWS)

                            
000
ASUS43 KTOP 250259
RWRKS 

WEATHER ROUNDUP FOR KANSAS
NATIONAL WEATHER SERVICE GOODLAND KS
1000 PM CDT MON JUN 24 2019

NOTE:  "FAIR" INDICATES FEW OR NO CLOUDS BELOW 12,000 FEET WITH NO
SIGNIFICANT WEATHER AND/OR OBSTRUCTIONS TO VISIBILITY.

KSZ001>006-013>018-027>032-041>047-250400-
NORTHWEST KANSAS
  
CITY           SKY/WX    TMP DP  RH WIND       PRES   REMARKS
GOODLAND       PTCLDY    74  45  35 S12       29.87R                  
HAYS           CLEAR     71  55  56 S10       29.81R                  
HILL CITY      CLEAR     73  53  49 SW6       29.80R                  
RUSSELL        CLEAR     73  56  54 S10       29.80R                  
$$

KSZ061>065-074>080-084>089-250400-
SOUTHWEST KANSAS
  
CITY           SKY/WX    TMP DP  RH WIND       PRES   REMARKS
DODGE CITY     CLEAR     71  57  61 S7        29.88R                  
GARDEN CITY    CLEAR     70  57  63 SE9       29.87R                  
GREAT BEND     CLEAR     71  58  63 S10       29.84R                  
LIBERAL        CLEAR     72  58  61 SE14      29.90R                  
$$

KSZ066>073-081>083-090>101-250400-
SOUTHEAST KANSAS
  
CITY           SKY/WX    TMP DP  RH WIND       PRES   REMARKS
CHANUTE        CLEAR     68  61  78 SE6       29.90R                  
COFFEYVILLE    CLEAR     70  63  78 S6        29.89R                  
HUTCHINSON     CLEAR     72  57  59 S8        29.84S                  
MEDICINE LODGE   N/A     73  57  57 S7        29.87R                  
NEWTON         CLEAR     72  59  63 S13       29.87R                  
PARSONS        CLEAR     65  64  97 CALM      29.92R                  
WICHITA INTL   CLEAR     72  58  61 S9        29.86R                  
WICHITA JABRA  CLEAR     70  57  63 S8        29.87R                  
WICHITA MCCONL CLEAR     73  58  59 SE9       29.87R                  
WINFIELD       CLEAR     68  60  75 S7        29.90R                  
$$

KSZ007>012-019>026-033>040-048>060-102>105-250400-
NORTHEAST KANSAS
  
CITY           SKY/WX    TMP DP  RH WIND       PRES   REMARKS
CONCORDIA      CLEAR     73  60  63 S13       29.79R                  
EMPORIA        CLEAR     69  61  75 S10       29.86S                  
LAWRENCE       CLEAR     67  61  81 SE3       29.85S                  
MANHATTAN      CLEAR     72  60  66 S5        29.82R                  
OLATHE IND     CLEAR     66  59  78 S6        29.88R                  
OLATHE EXE     CLEAR     68  60  75 S5        29.88R                  
SALINA         CLEAR     71  59  65 S9        29.81R                  
TOPEKA BILLARD CLEAR     74  58  57 S7        29.84S                  
TOPEKA FORBES  CLEAR     68  60  75 SE6       29.85S                  
$$